W4BRM Weather Reports


time (UTC)temp
C
wind
direction
speed
KPH
gust
KPH
rain 1hr
cm
rain 24hr
cm
rain mn
cm
humidity
%
barometer
mb
20260507203350 14 353 0.0 0.0 0.00 0.18 0.05 57 1006.2
20260507200357 15 353 0.0 1.6 0.00 0.18 0.05 55 1006.2
20260507193338 16 353 0.0 0.0 0.00 0.18 0.05 47 1006.5
20260507190343 14 353 0.0 0.0 0.00 0.18 0.05 51 1007.1
20260507183339 13 353 0.0 0.0 0.00 0.18 0.05 52 1007.1
20260507180405 15 353 0.0 0.0 0.00 0.18 0.05 49 1007.4
20260507173345 15 353 0.0 0.0 0.00 0.18 0.05 50 1007.8
20260507170349 13 353 0.0 0.0 0.00 0.18 0.05 50 1008.3
20260507163346 13 353 0.0 0.0 0.00 0.18 0.05 53 1008.8
20260507160353 12 353 0.0 0.0 0.00 0.18 0.05 55 1009.0
20260507153416 11 353 0.0 0.0 0.00 0.18 0.05 57 1009.4
20260507150343 10 353 0.0 0.0 0.00 0.18 0.05 57 1009.5
20260507143341 10 353 0.0 0.0 0.00 0.25 0.05 59 1009.9
20260507140346 9 353 0.0 0.0 0.00 0.25 0.05 59 1010.0
20260507133409 9 353 0.0 0.0 0.00 0.41 0.05 59 1010.5
20260507130357 9 353 0.0 0.0 0.00 0.41 0.05 59 1010.1
20260507123413 9 353 0.0 0.0 0.00 0.61 0.05 58 1010.5
20260507120358 9 353 0.0 0.0 0.00 0.61 0.05 59 1010.2
20260507113337 10 353 0.0 0.0 0.00 0.64 0.05 56 1010.0
20260507103354 -17 0.0 0.0 0.00 0.64 0.05 1009.5
20260507100354 -17 0.0 0.0 0.00 0.64 0.05 1009.4
20260507093354 -17 0.0 0.0 0.00 0.64 0.05 1009.2
20260507090401 -17 0.0 0.0 0.00 0.64 0.05 1008.9
20260507083340 10 353 0.0 0.0 0.00 0.64 0.05 1 1008.9
20260507080347 10 353 0.0 0.0 0.00 0.64 0.05 1 1008.9
20260507073350 10 353 0.0 0.0 0.00 0.64 0.05 1 1008.4
20260507070418 10 353 0.0 0.0 0.03 0.64 0.05 1 1008.4
20260507063355 11 353 0.0 0.0 0.03 0.64 0.05 1 1008.4
20260507060342 11 353 0.0 0.0 0.03 0.61 0.03 1 1008.5
20260507053346 11 353 0.0 0.0 0.03 0.61 0.03 1 1008.7
20260507050354 11 353 0.0 0.0 0.00 0.58 0.00 1 1008.7
20260507043354 12 353 0.0 0.0 0.05 0.58 0.00 1 1008.8
20260507040359 12 353 0.0 0.0 0.05 0.58 0.00 1 1008.2
20260507033400 13 353 0.0 0.0 0.00 0.53 0.53 1 1007.9
20260507030348 13 353 0.0 0.0 0.00 0.53 0.53 1 1008.2
20260507023413 15 353 0.0 0.0 0.00 0.53 0.53 1 1007.3
20260507020352 15 353 0.0 0.0 0.00 0.53 0.53 1 1007.5
20260507013355 16 353 0.0 0.0 0.00 0.53 0.53 1 1007.2
20260507010342 16 353 0.0 0.0 0.00 0.53 0.53 1 1007.8
20260507003400 17 353 0.0 0.0 0.00 0.53 0.53 1 1007.4
20260507000343 17 353 0.0 0.0 0.08 0.53 0.53 1 1007.3
20260506233341 17 353 0.0 0.0 0.08 0.53 0.53 1 1006.8
20260506230346 18 353 0.0 0.0 0.00 0.46 0.46 1 1006.4
20260506223407 18 353 0.0 0.0 0.00 0.46 0.46 1 1006.2
20260506220349 18 353 0.0 0.0 0.00 0.46 0.46 1 1006.1
20260506213349 18 353 0.0 0.0 0.00 0.46 0.46 1 1005.7
20260506210356 19 353 0.0 0.0 0.00 0.46 0.46 1 1005.8